Pickens County Airport, SC

7:03 AM EDT on June 23, 2017 (GMT -0400)
Pickens County

Weather History for KLQK - February, 2014

Change the Weather History Date:

Saturday, February 1, 2014

  Actual Average Record
Temperature  
Mean Temperature 39 °F -  
Max Temperature 60 °F 53 °F 85 °F (2016)
Min Temperature 21 °F 32 °F 21 °F (2014)
Degree Days  
Heating Degree Days 26    
Moisture  
Dew Point 27 °F    
Average Humidity 65    
Maximum Humidity 96    
Minimum Humidity 24    
Precipitation  
Precipitation 0.00 in - - ()
Sea Level Pressure  
Sea Level Pressure 30.15 in    
Wind  
Wind Speed - (North)    
Max Wind Speed -    
Max Gust Speed -    
Visibility 10 miles    
Events      
Averages and records for this station are not official NWS values.
T = Trace of Precipitation, MM = Missing Value Source: NWS Daily Summary

Daily Weather History Graph

Daily Weather History Graph

Search for Another Location

Airport or City:

Trip Planner

Search our weather history database for the weather conditions in past years. The results will help you decide how hot, cold, wet, or windy it might be!

Date:

Astronomy

Feb. 01, 2014 Rise Set
Actual Time 7:29 AM EST 5:59 PM EST
Civil Twilight 7:02 AM EST 6:26 PM EST
Nautical Twilight 6:32 AM EST 6:56 PM EST
Astronomical Twilight 6:02 AM EST 7:26 PM EST
Moon 8:24 AM EST (2/1) 8:25 PM EST (2/1)
Length of Visible Light 11h 23m
Length of Day
10h 30m
Waxing Crescent, 5% of the Moon is Illuminated
Feb 1
Waxing Crescent
Feb 6
First Quarter
Feb 14
Full
Feb 22
Last Quarter
Mar 1
New

Hourly Weather History & Observations

Time (EST) Temp. Dew Point Humidity Pressure Visibility Wind Dir Wind Speed Gust Speed Precip Events Conditions
12:15 AM 27.5 °F 20.7 °F 75% 30.15 in 10.0 mi North - - N/A   Clear
12:35 AM 27.0 °F 20.5 °F 77% 30.15 in 10.0 mi North - - N/A   Clear
12:55 AM 26.6 °F 19.9 °F 76% 30.15 in 10.0 mi North - - N/A   Clear
1:15 AM 26.8 °F 19.2 °F 73% 30.15 in 10.0 mi North - - N/A   Clear
1:35 AM 25.7 °F 19.9 °F 79% 30.16 in 10.0 mi North - - N/A   Clear
1:55 AM 26.2 °F 19.6 °F 76% 30.16 in 10.0 mi North - - N/A   Clear
2:15 AM 25.3 °F 19.4 °F 78% 30.16 in 10.0 mi North - - N/A   Clear
2:35 AM 24.8 °F 19.2 °F 79% 30.16 in 10.0 mi North - - N/A   Clear
2:55 AM 24.8 °F 20.1 °F 82% 30.16 in 10.0 mi North - - N/A   Clear
3:15 AM 24.1 °F 20.1 °F 85% 30.16 in 10.0 mi North - - N/A   Clear
3:35 AM 24.4 °F 20.1 °F 84% 30.16 in 10.0 mi North - - N/A   Clear
3:55 AM 23.7 °F 19.4 °F 84% 30.16 in 10.0 mi North - - N/A   Clear
4:15 AM 23.7 °F 19.4 °F 84% 30.16 in 10.0 mi North - - N/A   Clear
4:35 AM 22.8 °F 19.4 °F 87% 30.15 in 10.0 mi North - - N/A   Clear
4:55 AM 22.6 °F 19.8 °F 89% 30.15 in 10.0 mi North - - N/A   Clear
5:15 AM 22.6 °F 19.9 °F 89% 30.15 in 10.0 mi North - - N/A   Clear
5:35 AM 22.6 °F 20.1 °F 90% 30.15 in 10.0 mi North - - N/A   Clear
5:55 AM 22.8 °F 19.9 °F 89% 30.16 in 10.0 mi North - - N/A   Clear
6:15 AM 21.6 °F 20.3 °F 95% 30.16 in 10.0 mi North - - N/A   Clear
6:35 AM 21.6 °F 20.1 °F 94% 30.16 in 10.0 mi North - - N/A   Clear
6:55 AM 21.4 °F 19.6 °F 93% 30.17 in 10.0 mi North - - N/A   Clear
7:15 AM 21.4 °F 20.5 °F 96% 30.17 in 10.0 mi North - - N/A   Clear
7:35 AM 22.5 °F 20.3 °F 91% 30.18 in 10.0 mi North - - N/A   Clear
7:55 AM 23.4 °F 21.2 °F 91% 30.18 in 10.0 mi North - - N/A   Mostly Cloudy
8:15 AM 25.3 °F 22.8 °F 90% 30.18 in 10.0 mi North - - N/A   Overcast
8:35 AM 27.5 °F 24.1 °F 87% 30.18 in 10.0 mi North - - N/A   Mostly Cloudy
8:55 AM 30.0 °F 25.0 °F 82% 30.18 in 10.0 mi North - - N/A   Mostly Cloudy
9:15 AM 31.8 °F 26.2 °F 80% 30.18 in 10.0 mi North - - N/A   Overcast
9:35 AM 35.2 °F 27.9 °F 74% 30.19 in 10.0 mi North - - N/A   Overcast
9:55 AM 36.5 °F 28.6 °F 73% 30.19 in 10.0 mi North - - N/A   Overcast
10:15 AM 39.9 °F 28.9 °F 65% 30.20 in 10.0 mi North - - N/A   Overcast
10:35 AM 42.1 °F 29.7 °F 61% 30.20 in 10.0 mi North - - N/A   Overcast
10:55 AM 45.0 °F 28.2 °F 52% 30.20 in 10.0 mi North - - N/A   Overcast
11:15 AM 47.8 °F 25.2 °F 41% 30.19 in 10.0 mi North - - N/A   Overcast
11:35 AM 50.7 °F 24.1 °F 35% 30.19 in 10.0 mi North - - N/A   Overcast
11:55 AM 51.8 °F 23.2 °F 33% 30.19 in 10.0 mi North - - N/A   Overcast
12:15 PM 52.2 °F 23.2 °F 32% 30.18 in 10.0 mi North - - N/A   Overcast
12:35 PM 53.6 °F 22.3 °F 30% 30.17 in 10.0 mi North - - N/A   Overcast
12:55 PM 54.3 °F 21.7 °F 28% 30.15 in 10.0 mi North - - N/A   Overcast
1:15 PM 55.0 °F 21.9 °F 28% 30.13 in 10.0 mi North - - N/A   Overcast
1:35 PM 55.2 °F 21.6 °F 27% 30.13 in 10.0 mi North - - N/A   Overcast
1:55 PM 55.4 °F 21.2 °F 26% 30.12 in 10.0 mi North - - N/A   Overcast
2:15 PM 55.8 °F 20.5 °F 25% 30.11 in 10.0 mi North - - N/A   Overcast
2:35 PM 56.3 °F 19.8 °F 24% 30.11 in 10.0 mi North - - N/A   Overcast
2:55 PM 57.0 °F 21.0 °F 25% 30.11 in 10.0 mi North - - N/A   Overcast
3:15 PM 56.8 °F 26.6 °F 31% 30.10 in 10.0 mi North - - N/A   Overcast
3:35 PM 56.7 °F 26.6 °F 32% 30.11 in 10.0 mi North - - N/A   Overcast
3:55 PM 56.5 °F 28.8 °F 35% 30.11 in 10.0 mi North - - N/A   Overcast
4:15 PM 56.7 °F 31.3 °F 38% 30.11 in 10.0 mi North - - N/A   Overcast
4:35 PM 55.6 °F 33.1 °F 43% 30.11 in 10.0 mi North - - N/A   Overcast
4:55 PM 54.5 °F 34.3 °F 47% 30.11 in 10.0 mi North - - N/A   Overcast
5:15 PM 54.1 °F 35.2 °F 49% 30.11 in 10.0 mi North - - N/A   Overcast
5:35 PM 54.0 °F 36.0 °F 51% 30.11 in 10.0 mi North - - N/A   Overcast
5:55 PM 53.2 °F 35.6 °F 51% 30.11 in 10.0 mi North - - N/A   Overcast
6:15 PM 52.5 °F 36.0 °F 53% 30.12 in 10.0 mi North - - N/A   Overcast
6:35 PM 51.6 °F 37.9 °F 60% 30.12 in 10.0 mi North - - N/A   Overcast
6:55 PM 51.3 °F 39.0 °F 63% 30.12 in 10.0 mi North - - N/A   Overcast
7:15 PM 50.7 °F 38.8 °F 64% 30.12 in 10.0 mi North - - N/A   Overcast
7:35 PM 50.5 °F 38.7 °F 64% 30.12 in 10.0 mi North - - N/A   Overcast
7:55 PM 50.2 °F 38.5 °F 64% 30.13 in 10.0 mi North - - N/A   Overcast
8:15 PM 50.0 °F 37.9 °F 63% 30.13 in 10.0 mi North - - N/A   Overcast
8:35 PM 49.6 °F 37.9 °F 64% 30.12 in 10.0 mi North - - N/A   Overcast
8:55 PM 49.5 °F 38.3 °F 65% 30.13 in 10.0 mi North - - N/A   Overcast
9:15 PM 49.1 °F 38.1 °F 66% 30.13 in 10.0 mi North - - N/A   Overcast
9:35 PM 48.6 °F 37.8 °F 66% 30.13 in 10.0 mi North - - N/A   Scattered Clouds
9:55 PM 46.9 °F 37.4 °F 69% 30.13 in 10.0 mi North - - N/A   Clear
10:15 PM 44.4 °F 37.2 °F 76% 30.13 in 10.0 mi North - - N/A   Clear
10:35 PM 42.8 °F 36.7 °F 79% 30.13 in 10.0 mi North - - N/A   Clear
10:55 PM 42.3 °F 36.5 °F 80% 30.13 in 10.0 mi North - - N/A   Clear
11:15 PM 40.1 °F 36.3 °F 86% 30.13 in 10.0 mi North - - N/A   Clear
11:35 PM 37.6 °F 36.1 °F 95% 30.12 in 10.0 mi North - - N/A   Clear
11:55 PM 37.8 °F 36.3 °F 95% 30.12 in 10.0 mi North - - N/A   Clear